When you browse on this site, cookies collect data to enhance your experience and personalize the content and advertising you see.
Visit our Privacy Policy to learn more. By continuing to use the site, you agree to this use of cookies and data.
  • en Suisse
  • Liste des pays
  • À 7 jours
  • Température de l'eau
  • Carte satellitaire
  • Carte météo
  • Widgets météo
  • user-avatar
    Se connecter

    Météo par heure à Townsville

    Ce jour, 26 Avril, Vendredi

    Heure Température Précipitation Vent Pression Humidité
    00:00 +25°C° 0.1 mm 2 m/s 753 mmHg 92%
    01:00 +25°C° 0.1 mm 2 m/s 753 mmHg 92%
    02:00 +25°C° 0.2 mm 2 m/s 753 mmHg 93%
    03:00 +25°C° 0.2 mm 2 m/s 753 mmHg 93%
    04:00 +25°C° 0 mm 2 m/s 752 mmHg 93%
    05:00 +25°C° 0.2 mm 2 m/s 752 mmHg 93%
    06:00 +25°C° 0.2 mm 2 m/s 753 mmHg 92%
    07:00 +25°C° 0.2 mm 2 m/s 753 mmHg 92%
    08:00 +27°C° 0.1 mm 2 m/s 753 mmHg 85%
    09:00 +28°C° 0.1 mm 2 m/s 753 mmHg 79%
    10:00 +29°C° 0.1 mm 3 m/s 753 mmHg 73%
    11:00 +30°C° 0 mm 3 m/s 753 mmHg 69%
    12:00 +30°C° 0 mm 3 m/s 753 mmHg 64%
    13:00 +31°C° 0 mm 3 m/s 752 mmHg 59%
    14:00 +31°C° 0 mm 3 m/s 752 mmHg 62%
    15:00 +31°C° 0 mm 3 m/s 752 mmHg 64%
    16:00 +30°C° 0 mm 3 m/s 751 mmHg 66%
    17:00 +29°C° 0 mm 3 m/s 752 mmHg 73%
    18:00 +28°C° 0 mm 2 m/s 752 mmHg 80%
    19:00 +26°C° 0 mm 2 m/s 752 mmHg 87%
    20:00 +26°C° 0 mm 2 m/s 753 mmHg 89%
    21:00 +26°C° 0 mm 2 m/s 753 mmHg 91%
    22:00 +26°C° 0 mm 2 m/s 753 mmHg 93%
    23:00 +25°C° 0.1 mm 2 m/s 753 mmHg 93%

    Demain, 27 Avril, Samedi

    Heure Température Précipitation Vent Pression Humidité
    00:00 +25°C° 0.1 mm 2 m/s 753 mmHg 93%
    01:00 +25°C° 0.1 mm 2 m/s 753 mmHg 93%
    02:00 +25°C° 0.1 mm 2 m/s 753 mmHg 94%
    03:00 +25°C° 0.1 mm 2 m/s 753 mmHg 94%
    04:00 +25°C° 0.1 mm 2 m/s 753 mmHg 94%
    05:00 +25°C° 0 mm 2 m/s 753 mmHg 94%
    06:00 +25°C° 0 mm 3 m/s 753 mmHg 93%
    07:00 +25°C° 0 mm 3 m/s 754 mmHg 93%
    08:00 +27°C° 0 mm 3 m/s 754 mmHg 86%
    09:00 +28°C° 0 mm 4 m/s 754 mmHg 78%
    10:00 +29°C° 0 mm 4 m/s 755 mmHg 71%
    11:00 +30°C° 0 mm 4 m/s 754 mmHg 67%
    12:00 +32°C° 0 mm 4 m/s 754 mmHg 63%
    13:00 +33°C° 0 mm 4 m/s 753 mmHg 59%
    14:00 +32°C° 0.1 mm 4 m/s 753 mmHg 62%
    15:00 +32°C° 0.1 mm 4 m/s 753 mmHg 65%
    16:00 +30°C° 0.1 mm 5 m/s 753 mmHg 68%
    17:00 +29°C° 0.2 mm 4 m/s 753 mmHg 74%
    18:00 +28°C° 0.2 mm 4 m/s 754 mmHg 80%
    19:00 +26°C° 0.2 mm 4 m/s 754 mmHg 87%
    20:00 +26°C° 0.8 mm 5 m/s 755 mmHg 87%
    21:00 +26°C° 0.8 mm 5 m/s 755 mmHg 87%
    22:00 +26°C° 0.8 mm 6 m/s 756 mmHg 87%
    23:00 +25°C° 0.4 mm 5 m/s 755 mmHg 88%

    Après-demain, 28 Avril, Dimanche

    Heure Température Précipitation Vent Pression Humidité
    00:00 +25°C° 0.4 mm 5 m/s 755 mmHg 89%
    01:00 +25°C° 0.4 mm 5 m/s 755 mmHg 91%
    02:00 +25°C° 0.1 mm 5 m/s 755 mmHg 91%
    03:00 +25°C° 0.1 mm 5 m/s 755 mmHg 91%
    04:00 +23°C° 0.1 mm 5 m/s 754 mmHg 91%
    05:00 +23°C° 0.1 mm 5 m/s 755 mmHg 90%
    06:00 +23°C° 0.1 mm 5 m/s 755 mmHg 90%
    07:00 +23°C° 0.1 mm 5 m/s 756 mmHg 89%
    08:00 +26°C° 0 mm 6 m/s 756 mmHg 82%
    09:00 +27°C° 0 mm 6 m/s 756 mmHg 76%
    10:00 +28°C° 0 mm 7 m/s 757 mmHg 69%
    11:00 +29°C° 0 mm 7 m/s 756 mmHg 66%
    12:00 +30°C° 0 mm 7 m/s 756 mmHg 63%
    13:00 +30°C° 0 mm 7 m/s 755 mmHg 60%
    14:00 +30°C° 0.1 mm 7 m/s 755 mmHg 62%
    15:00 +29°C° 0.1 mm 7 m/s 755 mmHg 63%
    16:00 +29°C° 0.1 mm 7 m/s 754 mmHg 65%
    17:00 +28°C° 0 mm 7 m/s 755 mmHg 68%
    18:00 +27°C° 0 mm 6 m/s 755 mmHg 72%
    19:00 +26°C° 0 mm 6 m/s 755 mmHg 76%
    20:00 +26°C° 0 mm 6 m/s 756 mmHg 77%
    21:00 +26°C° 0 mm 6 m/s 756 mmHg 78%
    22:00 +24°C° 0 mm 6 m/s 757 mmHg 78%
    23:00 +24°C° 0 mm 6 m/s 756 mmHg 80%

    29 Avril, Lundi

    Heure Température Précipitation Vent Pression Humidité
    00:00 +23°C° 0 mm 6 m/s 756 mmHg 82%
    01:00 +23°C° 0 mm 5 m/s 756 mmHg 83%
    02:00 +23°C° 0 mm 5 m/s 755 mmHg 84%
    03:00 +22°C° 0 mm 5 m/s 755 mmHg 86%
    04:00 +22°C° 0 mm 5 m/s 755 mmHg 87%
    05:00 +22°C° 0 mm 5 m/s 755 mmHg 87%
    06:00 +22°C° 0 mm 6 m/s 756 mmHg 87%
    07:00 +22°C° 0 mm 6 m/s 756 mmHg 87%
    08:00 +24°C° 0 mm 6 m/s 756 mmHg 80%
    09:00 +26°C° 0 mm 6 m/s 756 mmHg 73%
    10:00 +28°C° 0 mm 7 m/s 757 mmHg 65%
    11:00 +29°C° 0 mm 7 m/s 756 mmHg 62%
    12:00 +30°C° 0 mm 7 m/s 755 mmHg 60%
    13:00 +30°C° 0 mm 7 m/s 755 mmHg 57%
    14:00 +30°C° 0 mm 7 m/s 754 mmHg 58%
    15:00 +30°C° 0 mm 7 m/s 754 mmHg 60%
    16:00 +29°C° 0 mm 7 m/s 754 mmHg 61%
    17:00 +28°C° 0 mm 7 m/s 754 mmHg 66%
    18:00 +27°C° 0 mm 7 m/s 755 mmHg 70%
    19:00 +26°C° 0 mm 7 m/s 755 mmHg 75%
    20:00 +26°C° 0 mm 7 m/s 755 mmHg 76%
    21:00 +26°C° 0 mm 7 m/s 755 mmHg 77%
    22:00 +24°C° 0 mm 7 m/s 756 mmHg 79%
    23:00 +24°C° 0 mm 7 m/s 755 mmHg 80%

    30 Avril, Mardi

    Heure Température Précipitation Vent Pression Humidité
    00:00 +24°C° 0 mm 6 m/s 755 mmHg 82%
    01:00 +24°C° 0 mm 6 m/s 755 mmHg 84%
    02:00 +24°C° 0.1 mm 6 m/s 754 mmHg 84%
    03:00 +23°C° 0.1 mm 6 m/s 754 mmHg 85%
    04:00 +23°C° 0.1 mm 6 m/s 754 mmHg 86%
    05:00 +23°C° 0 mm 6 m/s 754 mmHg 86%
    06:00 +24°C° 0 mm 6 m/s 754 mmHg 86%
    07:00 +24°C° 0 mm 6 m/s 755 mmHg 86%
    08:00 +24°C° 0.1 mm 6 m/s 755 mmHg 82%
    09:00 +26°C° 0.1 mm 6 m/s 755 mmHg 79%
    10:00 +27°C° 0.1 mm 6 m/s 755 mmHg 76%
    11:00 +28°C° 0.1 mm 6 m/s 755 mmHg 73%
    12:00 +28°C° 0.1 mm 6 m/s 754 mmHg 69%
    13:00 +29°C° 0.1 mm 6 m/s 754 mmHg 66%
    14:00 +29°C° 0.1 mm 6 m/s 754 mmHg 67%
    15:00 +28°C° 0.1 mm 6 m/s 753 mmHg 69%
    16:00 +28°C° 0.1 mm 6 m/s 753 mmHg 70%
    17:00 +27°C° 0.1 mm 5 m/s 753 mmHg 75%
    18:00 +26°C° 0.1 mm 5 m/s 754 mmHg 79%
    19:00 +25°C° 0.1 mm 5 m/s 754 mmHg 83%
    20:00 +25°C° 0.1 mm 5 m/s 754 mmHg 84%
    21:00 +25°C° 0.1 mm 5 m/s 755 mmHg 86%
    22:00 +25°C° 0.1 mm 5 m/s 755 mmHg 87%
    23:00 +25°C° 0.1 mm 5 m/s 755 mmHg 87%

    1 Mai, Mercredi

    Heure Température Précipitation Vent Pression Humidité
    00:00 +25°C° 0.1 mm 5 m/s 754 mmHg 87%
    01:00 +25°C° 0.1 mm 4 m/s 754 mmHg 87%
    02:00 +25°C° 0.1 mm 4 m/s 754 mmHg 88%
    03:00 +23°C° 0.1 mm 4 m/s 753 mmHg 89%
    04:00 +23°C° 0.1 mm 4 m/s 753 mmHg 89%
    05:00 +23°C° 0.1 mm 4 m/s 753 mmHg 89%
    06:00 +23°C° 0.1 mm 4 m/s 754 mmHg 90%
    07:00 +23°C° 0.1 mm 4 m/s 754 mmHg 90%
    08:00 +25°C° 0.2 mm 4 m/s 754 mmHg 86%
    09:00 +26°C° 0.2 mm 4 m/s 755 mmHg 82%
    10:00 +27°C° 0.2 mm 5 m/s 755 mmHg 79%
    11:00 +27°C° 0.3 mm 5 m/s 754 mmHg 76%
    12:00 +28°C° 0.3 mm 5 m/s 753 mmHg 74%
    13:00 +28°C° 0.3 mm 5 m/s 753 mmHg 72%
    14:00 +28°C° 0.1 mm 6 m/s 753 mmHg 71%
    15:00 +28°C° 0.1 mm 6 m/s 752 mmHg 70%
    16:00 +28°C° 0.1 mm 6 m/s 752 mmHg 69%
    17:00 +27°C° 0 mm 5 m/s 753 mmHg 74%
    18:00 +26°C° 0 mm 5 m/s 753 mmHg 79%
    19:00 +25°C° 0 mm 4 m/s 753 mmHg 83%
    20:00 +25°C° 0 mm 4 m/s 754 mmHg 85%
    21:00 +25°C° 0 mm 4 m/s 754 mmHg 86%
    22:00 +25°C° 0 mm 4 m/s 754 mmHg 88%
    23:00 +23°C° 0.1 mm 4 m/s 754 mmHg 88%
    Voir plus